{"data":{"norad_id":66234,"epoch":"2026-05-25T02:39:44.859168Z","epoch_age_seconds":59485,"freshness":"FRESH","line1":"1 66234U 25245A   26145.11093587  .00040486  00000+0  13070-2 0  9995","line2":"2 66234  53.1582 288.4568 0000667 109.8522 250.2551 15.31758663 32969","mean_motion":15.31758663,"eccentricity":6.67e-5,"inclination_deg":53.1582,"raan_deg":288.4568,"arg_perigee_deg":109.8522,"mean_anomaly_deg":250.2551,"bstar":0.001307,"rev_number":3296,"period_min":94.009587462017,"perigee_km":470.1083210242,"apogee_km":471.02193788827,"semimajor_km":6848.7021294562,"source":"CELESTRAK","updated_at":"2026-05-25T13:38:21.133069Z"}}